Index of /20260509/WXO-DD/model_rdps/10km/18/062
Name Last modified Size Description
Parent Directory -
20260509T18Z_MSC_RDPS_AbsoluteVorticity_IsbL-0250_RLatLon0.09_PT062H.grib2 2026-05-09 20:58 607K
20260509T18Z_MSC_RDPS_AbsoluteVorticity_IsbL-0500_RLatLon0.09_PT062H.grib2 2026-05-09 20:58 574K
20260509T18Z_MSC_RDPS_AbsoluteVorticity_IsbL-0700_RLatLon0.09_PT062H.grib2 2026-05-09 20:58 637K
20260509T18Z_MSC_RDPS_AbsoluteVorticity_IsbL-0850_RLatLon0.09_PT062H.grib2 2026-05-09 20:58 792K
20260509T18Z_MSC_RDPS_AirTemp_AGL-120m_RLatLon0.09_PT062H.grib2 2026-05-09 20:58 379K
20260509T18Z_MSC_RDPS_AirTemp_AGL-2m_RLatLon0.09_PT062H.grib2 2026-05-09 20:58 634K
20260509T18Z_MSC_RDPS_AirTemp_AGL-40m_RLatLon0.09_PT062H.grib2 2026-05-09 20:58 396K
20260509T18Z_MSC_RDPS_AirTemp_AGL-80m_RLatLon0.09_PT062H.grib2 2026-05-09 20:58 386K
20260509T18Z_MSC_RDPS_AirTemp_IsbL-0001_RLatLon0.09_PT062H.grib2 2026-05-09 20:58 229K
20260509T18Z_MSC_RDPS_AirTemp_IsbL-0005_RLatLon0.09_PT062H.grib2 2026-05-09 20:58 290K
20260509T18Z_MSC_RDPS_AirTemp_IsbL-0010_RLatLon0.09_PT062H.grib2 2026-05-09 20:58 391K
20260509T18Z_MSC_RDPS_AirTemp_IsbL-0020_RLatLon0.09_PT062H.grib2 2026-05-09 20:58 414K
20260509T18Z_MSC_RDPS_AirTemp_IsbL-0030_RLatLon0.09_PT062H.grib2 2026-05-09 20:58 343K
20260509T18Z_MSC_RDPS_AirTemp_IsbL-0050_RLatLon0.09_PT062H.grib2 2026-05-09 20:58 312K
20260509T18Z_MSC_RDPS_AirTemp_IsbL-0100_RLatLon0.09_PT062H.grib2 2026-05-09 20:58 422K
20260509T18Z_MSC_RDPS_AirTemp_IsbL-0150_RLatLon0.09_PT062H.grib2 2026-05-09 20:58 403K
20260509T18Z_MSC_RDPS_AirTemp_IsbL-0175_RLatLon0.09_PT062H.grib2 2026-05-09 20:58 398K
20260509T18Z_MSC_RDPS_AirTemp_IsbL-0200_RLatLon0.09_PT062H.grib2 2026-05-09 20:58 403K
20260509T18Z_MSC_RDPS_AirTemp_IsbL-0225_RLatLon0.09_PT062H.grib2 2026-05-09 20:58 410K
20260509T18Z_MSC_RDPS_AirTemp_IsbL-0250_RLatLon0.09_PT062H.grib2 2026-05-09 20:58 424K
20260509T18Z_MSC_RDPS_AirTemp_IsbL-0275_RLatLon0.09_PT062H.grib2 2026-05-09 20:58 402K
20260509T18Z_MSC_RDPS_AirTemp_IsbL-0300_RLatLon0.09_PT062H.grib2 2026-05-09 20:58 408K
20260509T18Z_MSC_RDPS_AirTemp_IsbL-0350_RLatLon0.09_PT062H.grib2 2026-05-09 20:58 421K
20260509T18Z_MSC_RDPS_AirTemp_IsbL-0400_RLatLon0.09_PT062H.grib2 2026-05-09 20:58 424K
20260509T18Z_MSC_RDPS_AirTemp_IsbL-0450_RLatLon0.09_PT062H.grib2 2026-05-09 20:58 433K
20260509T18Z_MSC_RDPS_AirTemp_IsbL-0500_RLatLon0.09_PT062H.grib2 2026-05-09 20:58 445K
20260509T18Z_MSC_RDPS_AirTemp_IsbL-0550_RLatLon0.09_PT062H.grib2 2026-05-09 20:58 466K
20260509T18Z_MSC_RDPS_AirTemp_IsbL-0600_RLatLon0.09_PT062H.grib2 2026-05-09 20:58 487K
20260509T18Z_MSC_RDPS_AirTemp_IsbL-0650_RLatLon0.09_PT062H.grib2 2026-05-09 20:58 503K
20260509T18Z_MSC_RDPS_AirTemp_IsbL-0700_RLatLon0.09_PT062H.grib2 2026-05-09 20:58 530K
20260509T18Z_MSC_RDPS_AirTemp_IsbL-0750_RLatLon0.09_PT062H.grib2 2026-05-09 20:58 532K
20260509T18Z_MSC_RDPS_AirTemp_IsbL-0800_RLatLon0.09_PT062H.grib2 2026-05-09 20:58 587K
20260509T18Z_MSC_RDPS_AirTemp_IsbL-0850_RLatLon0.09_PT062H.grib2 2026-05-09 20:58 632K
20260509T18Z_MSC_RDPS_AirTemp_IsbL-0875_RLatLon0.09_PT062H.grib2 2026-05-09 20:58 650K
20260509T18Z_MSC_RDPS_AirTemp_IsbL-0900_RLatLon0.09_PT062H.grib2 2026-05-09 20:58 531K
20260509T18Z_MSC_RDPS_AirTemp_IsbL-0925_RLatLon0.09_PT062H.grib2 2026-05-09 20:58 530K
20260509T18Z_MSC_RDPS_AirTemp_IsbL-0950_RLatLon0.09_PT062H.grib2 2026-05-09 20:58 535K
20260509T18Z_MSC_RDPS_AirTemp_IsbL-0970_RLatLon0.09_PT062H.grib2 2026-05-09 20:58 532K
20260509T18Z_MSC_RDPS_AirTemp_IsbL-0985_RLatLon0.09_PT062H.grib2 2026-05-09 20:58 520K
20260509T18Z_MSC_RDPS_AirTemp_IsbL-1000_RLatLon0.09_PT062H.grib2 2026-05-09 20:58 628K
20260509T18Z_MSC_RDPS_AirTemp_IsbL-1015_RLatLon0.09_PT062H.grib2 2026-05-09 20:58 504K
20260509T18Z_MSC_RDPS_Albedo_Sfc_RLatLon0.09_PT062H.grib2 2026-05-09 20:58 159K
20260509T18Z_MSC_RDPS_CAPE_Sfc_RLatLon0.09_PT062H.grib2 2026-05-09 20:58 1.6M
20260509T18Z_MSC_RDPS_CIN_Sfc_RLatLon0.09_PT062H.grib2 2026-05-09 20:58 1.2M
20260509T18Z_MSC_RDPS_CloudWater_EAtm_RLatLon0.09_PT062H.grib2 2026-05-09 20:58 232K
20260509T18Z_MSC_RDPS_ConvectivePrecip-Accum_Sfc_RLatLon0.09_PT062H.grib2 2026-05-09 20:58 1.3M
20260509T18Z_MSC_RDPS_DewPointDepression_AGL-2m_RLatLon0.09_PT062H.grib2 2026-05-09 20:58 400K
20260509T18Z_MSC_RDPS_DewPointDepression_IsbL-0001_RLatLon0.09_PT062H.grib2 2026-05-09 20:58 193
20260509T18Z_MSC_RDPS_DewPointDepression_IsbL-0005_RLatLon0.09_PT062H.grib2 2026-05-09 20:58 193
20260509T18Z_MSC_RDPS_DewPointDepression_IsbL-0010_RLatLon0.09_PT062H.grib2 2026-05-09 20:58 193
20260509T18Z_MSC_RDPS_DewPointDepression_IsbL-0020_RLatLon0.09_PT062H.grib2 2026-05-09 20:58 193
20260509T18Z_MSC_RDPS_DewPointDepression_IsbL-0030_RLatLon0.09_PT062H.grib2 2026-05-09 20:58 193
20260509T18Z_MSC_RDPS_DewPointDepression_IsbL-0050_RLatLon0.09_PT062H.grib2 2026-05-09 20:58 108K
20260509T18Z_MSC_RDPS_DewPointDepression_IsbL-0100_RLatLon0.09_PT062H.grib2 2026-05-09 20:58 111K
20260509T18Z_MSC_RDPS_DewPointDepression_IsbL-0150_RLatLon0.09_PT062H.grib2 2026-05-09 20:58 142K
20260509T18Z_MSC_RDPS_DewPointDepression_IsbL-0175_RLatLon0.09_PT062H.grib2 2026-05-09 20:58 167K
20260509T18Z_MSC_RDPS_DewPointDepression_IsbL-0200_RLatLon0.09_PT062H.grib2 2026-05-09 20:58 218K
20260509T18Z_MSC_RDPS_DewPointDepression_IsbL-0225_RLatLon0.09_PT062H.grib2 2026-05-09 20:58 260K
20260509T18Z_MSC_RDPS_DewPointDepression_IsbL-0250_RLatLon0.09_PT062H.grib2 2026-05-09 20:58 303K
20260509T18Z_MSC_RDPS_DewPointDepression_IsbL-0275_RLatLon0.09_PT062H.grib2 2026-05-09 20:58 313K
20260509T18Z_MSC_RDPS_DewPointDepression_IsbL-0300_RLatLon0.09_PT062H.grib2 2026-05-09 20:58 330K
20260509T18Z_MSC_RDPS_DewPointDepression_IsbL-0350_RLatLon0.09_PT062H.grib2 2026-05-09 20:58 339K
20260509T18Z_MSC_RDPS_DewPointDepression_IsbL-0400_RLatLon0.09_PT062H.grib2 2026-05-09 20:58 351K
20260509T18Z_MSC_RDPS_DewPointDepression_IsbL-0450_RLatLon0.09_PT062H.grib2 2026-05-09 20:58 360K
20260509T18Z_MSC_RDPS_DewPointDepression_IsbL-0500_RLatLon0.09_PT062H.grib2 2026-05-09 20:58 364K
20260509T18Z_MSC_RDPS_DewPointDepression_IsbL-0550_RLatLon0.09_PT062H.grib2 2026-05-09 20:58 374K
20260509T18Z_MSC_RDPS_DewPointDepression_IsbL-0600_RLatLon0.09_PT062H.grib2 2026-05-09 20:58 385K
20260509T18Z_MSC_RDPS_DewPointDepression_IsbL-0650_RLatLon0.09_PT062H.grib2 2026-05-09 20:58 392K
20260509T18Z_MSC_RDPS_DewPointDepression_IsbL-0700_RLatLon0.09_PT062H.grib2 2026-05-09 20:58 402K
20260509T18Z_MSC_RDPS_DewPointDepression_IsbL-0750_RLatLon0.09_PT062H.grib2 2026-05-09 20:58 423K
20260509T18Z_MSC_RDPS_DewPointDepression_IsbL-0800_RLatLon0.09_PT062H.grib2 2026-05-09 20:58 463K
20260509T18Z_MSC_RDPS_DewPointDepression_IsbL-0850_RLatLon0.09_PT062H.grib2 2026-05-09 20:58 473K
20260509T18Z_MSC_RDPS_DewPointDepression_IsbL-0875_RLatLon0.09_PT062H.grib2 2026-05-09 20:58 468K
20260509T18Z_MSC_RDPS_DewPointDepression_IsbL-0900_RLatLon0.09_PT062H.grib2 2026-05-09 20:58 460K
20260509T18Z_MSC_RDPS_DewPointDepression_IsbL-0925_RLatLon0.09_PT062H.grib2 2026-05-09 20:58 447K
20260509T18Z_MSC_RDPS_DewPointDepression_IsbL-0950_RLatLon0.09_PT062H.grib2 2026-05-09 20:58 442K
20260509T18Z_MSC_RDPS_DewPointDepression_IsbL-0970_RLatLon0.09_PT062H.grib2 2026-05-09 20:58 437K
20260509T18Z_MSC_RDPS_DewPointDepression_IsbL-0985_RLatLon0.09_PT062H.grib2 2026-05-09 20:58 432K
20260509T18Z_MSC_RDPS_DewPointDepression_IsbL-1000_RLatLon0.09_PT062H.grib2 2026-05-09 20:58 424K
20260509T18Z_MSC_RDPS_DewPointDepression_IsbL-1015_RLatLon0.09_PT062H.grib2 2026-05-09 20:58 412K
20260509T18Z_MSC_RDPS_DewPoint_AGL-2m_RLatLon0.09_PT062H.grib2 2026-05-09 20:58 391K
20260509T18Z_MSC_RDPS_DownwardLongwaveRadiationFlux-Accum_Sfc_RLatLon0.09_PT062H.grib2 2026-05-09 20:58 400K
20260509T18Z_MSC_RDPS_DownwardShortwaveRadiationFlux-Accum_NTAtm_RLatLon0.09_PT062H.grib2 2026-05-09 20:58 100K
20260509T18Z_MSC_RDPS_DownwardShortwaveRadiationFlux-Accum_Sfc_RLatLon0.09_PT062H.grib2 2026-05-09 20:58 613K
20260509T18Z_MSC_RDPS_FreezingRain-Accum1h_Sfc_RLatLon0.09_PT062H.grib2 2026-05-09 20:58 33K
20260509T18Z_MSC_RDPS_FreezingRain-Accum_Sfc_RLatLon0.09_PT062H.grib2 2026-05-09 20:58 195K
20260509T18Z_MSC_RDPS_GeopotentialHeight_IsbL-0001_RLatLon0.09_PT062H.grib2 2026-05-09 20:58 244K
20260509T18Z_MSC_RDPS_GeopotentialHeight_IsbL-0005_RLatLon0.09_PT062H.grib2 2026-05-09 20:58 310K
20260509T18Z_MSC_RDPS_GeopotentialHeight_IsbL-0010_RLatLon0.09_PT062H.grib2 2026-05-09 20:58 311K
20260509T18Z_MSC_RDPS_GeopotentialHeight_IsbL-0020_RLatLon0.09_PT062H.grib2 2026-05-09 20:58 312K
20260509T18Z_MSC_RDPS_GeopotentialHeight_IsbL-0030_RLatLon0.09_PT062H.grib2 2026-05-09 20:58 314K
20260509T18Z_MSC_RDPS_GeopotentialHeight_IsbL-0050_RLatLon0.09_PT062H.grib2 2026-05-09 20:58 313K
20260509T18Z_MSC_RDPS_GeopotentialHeight_IsbL-0100_RLatLon0.09_PT062H.grib2 2026-05-09 20:58 286K
20260509T18Z_MSC_RDPS_GeopotentialHeight_IsbL-0150_RLatLon0.09_PT062H.grib2 2026-05-09 20:58 226K
20260509T18Z_MSC_RDPS_GeopotentialHeight_IsbL-0175_RLatLon0.09_PT062H.grib2 2026-05-09 20:58 229K
20260509T18Z_MSC_RDPS_GeopotentialHeight_IsbL-0200_RLatLon0.09_PT062H.grib2 2026-05-09 20:58 231K
20260509T18Z_MSC_RDPS_GeopotentialHeight_IsbL-0225_RLatLon0.09_PT062H.grib2 2026-05-09 20:58 233K
20260509T18Z_MSC_RDPS_GeopotentialHeight_IsbL-0250_RLatLon0.09_PT062H.grib2 2026-05-09 20:58 234K
20260509T18Z_MSC_RDPS_GeopotentialHeight_IsbL-0275_RLatLon0.09_PT062H.grib2 2026-05-09 20:58 233K
20260509T18Z_MSC_RDPS_GeopotentialHeight_IsbL-0300_RLatLon0.09_PT062H.grib2 2026-05-09 20:58 234K
20260509T18Z_MSC_RDPS_GeopotentialHeight_IsbL-0350_RLatLon0.09_PT062H.grib2 2026-05-09 20:58 230K
20260509T18Z_MSC_RDPS_GeopotentialHeight_IsbL-0400_RLatLon0.09_PT062H.grib2 2026-05-09 20:58 300K
20260509T18Z_MSC_RDPS_GeopotentialHeight_IsbL-0450_RLatLon0.09_PT062H.grib2 2026-05-09 20:58 294K
20260509T18Z_MSC_RDPS_GeopotentialHeight_IsbL-0500_RLatLon0.09_PT062H.grib2 2026-05-09 20:58 289K
20260509T18Z_MSC_RDPS_GeopotentialHeight_IsbL-0550_RLatLon0.09_PT062H.grib2 2026-05-09 20:58 286K
20260509T18Z_MSC_RDPS_GeopotentialHeight_IsbL-0600_RLatLon0.09_PT062H.grib2 2026-05-09 20:58 256K
20260509T18Z_MSC_RDPS_GeopotentialHeight_IsbL-0650_RLatLon0.09_PT062H.grib2 2026-05-09 20:58 254K
20260509T18Z_MSC_RDPS_GeopotentialHeight_IsbL-0700_RLatLon0.09_PT062H.grib2 2026-05-09 20:58 336K
20260509T18Z_MSC_RDPS_GeopotentialHeight_IsbL-0750_RLatLon0.09_PT062H.grib2 2026-05-09 20:58 339K
20260509T18Z_MSC_RDPS_GeopotentialHeight_IsbL-0800_RLatLon0.09_PT062H.grib2 2026-05-09 20:58 348K
20260509T18Z_MSC_RDPS_GeopotentialHeight_IsbL-0850_RLatLon0.09_PT062H.grib2 2026-05-09 20:58 356K
20260509T18Z_MSC_RDPS_GeopotentialHeight_IsbL-0875_RLatLon0.09_PT062H.grib2 2026-05-09 20:58 358K
20260509T18Z_MSC_RDPS_GeopotentialHeight_IsbL-0900_RLatLon0.09_PT062H.grib2 2026-05-09 20:58 361K
20260509T18Z_MSC_RDPS_GeopotentialHeight_IsbL-0925_RLatLon0.09_PT062H.grib2 2026-05-09 20:58 362K
20260509T18Z_MSC_RDPS_GeopotentialHeight_IsbL-0950_RLatLon0.09_PT062H.grib2 2026-05-09 20:58 365K
20260509T18Z_MSC_RDPS_GeopotentialHeight_IsbL-0970_RLatLon0.09_PT062H.grib2 2026-05-09 20:58 371K
20260509T18Z_MSC_RDPS_GeopotentialHeight_IsbL-0985_RLatLon0.09_PT062H.grib2 2026-05-09 20:58 413K
20260509T18Z_MSC_RDPS_GeopotentialHeight_IsbL-1000_RLatLon0.09_PT062H.grib2 2026-05-09 20:58 426K
20260509T18Z_MSC_RDPS_GeopotentialHeight_IsbL-1015_RLatLon0.09_PT062H.grib2 2026-05-09 20:58 445K
20260509T18Z_MSC_RDPS_HighLowPressure_MSL_RLatLon0.09_PT062H.json 2026-05-09 20:50 21K
20260509T18Z_MSC_RDPS_Humidex_Sfc_RLatLon0.09_PT062H.grib2 2026-05-09 20:58 2.4M
20260509T18Z_MSC_RDPS_IcePellets-Accum1h_Sfc_RLatLon0.09_PT062H.grib2 2026-05-09 20:58 14K
20260509T18Z_MSC_RDPS_IcePellets-Accum_Sfc_RLatLon0.09_PT062H.grib2 2026-05-09 20:58 45K
20260509T18Z_MSC_RDPS_KIndex_Sfc_RLatLon0.09_PT062H.grib2 2026-05-09 20:58 2.4M
20260509T18Z_MSC_RDPS_LatentHeatNetFlux_Sfc_RLatLon0.09_PT062H.grib2 2026-05-09 20:58 324K
20260509T18Z_MSC_RDPS_LiftedIndex-MU-VT_IsbL-0500_RLatLon0.09_PT062H.grib2 2026-05-09 20:58 2.4M
20260509T18Z_MSC_RDPS_NetLongwaveRadiationFlux-Accum_Sfc_RLatLon0.09_PT062H.grib2 2026-05-09 20:58 592K
20260509T18Z_MSC_RDPS_NetShortwaveRadiationFlux-Accum_Sfc_RLatLon0.09_PT062H.grib2 2026-05-09 20:58 611K
20260509T18Z_MSC_RDPS_PlanetaryBoundaryLayerHeight_Sfc_RLatLon0.09_PT062H.grib2 2026-05-09 20:58 1.1M
20260509T18Z_MSC_RDPS_Precip-Accum1h_Sfc_RLatLon0.09_PT062H.grib2 2026-05-09 20:58 1.3M
20260509T18Z_MSC_RDPS_Precip-Accum_Sfc_RLatLon0.09_PT062H.grib2 2026-05-09 20:58 2.1M
20260509T18Z_MSC_RDPS_PrecipRate_Sfc_RLatLon0.09_PT062H.grib2 2026-05-09 20:58 197K
20260509T18Z_MSC_RDPS_PrecipType-Instant_Sfc_RLatLon0.09_PT062H.grib2 2026-05-09 20:58 642K
20260509T18Z_MSC_RDPS_Pressure-Trend3h_Sfc_RLatLon0.09_PT062H.grib2 2026-05-09 20:58 1.2M
20260509T18Z_MSC_RDPS_Pressure_MSL_RLatLon0.09_PT062H.grib2 2026-05-09 20:58 323K
20260509T18Z_MSC_RDPS_Pressure_PVU-1.5_RLatLon0.09_PT062H.grib2 2026-05-09 20:58 2.5M
20260509T18Z_MSC_RDPS_Pressure_PVU-1_RLatLon0.09_PT062H.grib2 2026-05-09 20:58 2.4M
20260509T18Z_MSC_RDPS_Pressure_PVU-2_RLatLon0.09_PT062H.grib2 2026-05-09 20:58 2.4M
20260509T18Z_MSC_RDPS_Pressure_Sfc_RLatLon0.09_PT062H.grib2 2026-05-09 20:58 499K
20260509T18Z_MSC_RDPS_RadiativeTemp_Sfc_RLatLon0.09_PT062H.grib2 2026-05-09 20:58 395K
20260509T18Z_MSC_RDPS_Rain-Accum1h_Sfc_RLatLon0.09_PT062H.grib2 2026-05-09 20:58 634K
20260509T18Z_MSC_RDPS_Rain-Accum_Sfc_RLatLon0.09_PT062H.grib2 2026-05-09 20:58 1.8M
20260509T18Z_MSC_RDPS_RelativeHumidity_AGL-2m_RLatLon0.09_PT062H.grib2 2026-05-09 20:58 1.0M
20260509T18Z_MSC_RDPS_RelativeHumidity_IsbL-0010_RLatLon0.09_PT062H.grib2 2026-05-09 20:58 560K
20260509T18Z_MSC_RDPS_RelativeHumidity_IsbL-0020_RLatLon0.09_PT062H.grib2 2026-05-09 20:58 628K
20260509T18Z_MSC_RDPS_RelativeHumidity_IsbL-0030_RLatLon0.09_PT062H.grib2 2026-05-09 20:58 617K
20260509T18Z_MSC_RDPS_RelativeHumidity_IsbL-0050_RLatLon0.09_PT062H.grib2 2026-05-09 20:58 355K
20260509T18Z_MSC_RDPS_RelativeHumidity_IsbL-0100_RLatLon0.09_PT062H.grib2 2026-05-09 20:58 274K
20260509T18Z_MSC_RDPS_RelativeHumidity_IsbL-0150_RLatLon0.09_PT062H.grib2 2026-05-09 20:58 409K
20260509T18Z_MSC_RDPS_RelativeHumidity_IsbL-0175_RLatLon0.09_PT062H.grib2 2026-05-09 20:58 462K
20260509T18Z_MSC_RDPS_RelativeHumidity_IsbL-0200_RLatLon0.09_PT062H.grib2 2026-05-09 20:58 537K
20260509T18Z_MSC_RDPS_RelativeHumidity_IsbL-0225_RLatLon0.09_PT062H.grib2 2026-05-09 20:58 614K
20260509T18Z_MSC_RDPS_RelativeHumidity_IsbL-0250_RLatLon0.09_PT062H.grib2 2026-05-09 20:58 695K
20260509T18Z_MSC_RDPS_RelativeHumidity_IsbL-0275_RLatLon0.09_PT062H.grib2 2026-05-09 20:58 723K
20260509T18Z_MSC_RDPS_RelativeHumidity_IsbL-0300_RLatLon0.09_PT062H.grib2 2026-05-09 20:58 770K
20260509T18Z_MSC_RDPS_RelativeHumidity_IsbL-0350_RLatLon0.09_PT062H.grib2 2026-05-09 20:58 793K
20260509T18Z_MSC_RDPS_RelativeHumidity_IsbL-0400_RLatLon0.09_PT062H.grib2 2026-05-09 20:58 811K
20260509T18Z_MSC_RDPS_RelativeHumidity_IsbL-0450_RLatLon0.09_PT062H.grib2 2026-05-09 20:58 820K
20260509T18Z_MSC_RDPS_RelativeHumidity_IsbL-0500_RLatLon0.09_PT062H.grib2 2026-05-09 20:58 835K
20260509T18Z_MSC_RDPS_RelativeHumidity_IsbL-0550_RLatLon0.09_PT062H.grib2 2026-05-09 20:58 853K
20260509T18Z_MSC_RDPS_RelativeHumidity_IsbL-0600_RLatLon0.09_PT062H.grib2 2026-05-09 20:58 864K
20260509T18Z_MSC_RDPS_RelativeHumidity_IsbL-0650_RLatLon0.09_PT062H.grib2 2026-05-09 20:58 878K
20260509T18Z_MSC_RDPS_RelativeHumidity_IsbL-0700_RLatLon0.09_PT062H.grib2 2026-05-09 20:58 908K
20260509T18Z_MSC_RDPS_RelativeHumidity_IsbL-0750_RLatLon0.09_PT062H.grib2 2026-05-09 20:58 944K
20260509T18Z_MSC_RDPS_RelativeHumidity_IsbL-0800_RLatLon0.09_PT062H.grib2 2026-05-09 20:58 1.0M
20260509T18Z_MSC_RDPS_RelativeHumidity_IsbL-0850_RLatLon0.09_PT062H.grib2 2026-05-09 20:58 1.0M
20260509T18Z_MSC_RDPS_RelativeHumidity_IsbL-0875_RLatLon0.09_PT062H.grib2 2026-05-09 20:58 1.1M
20260509T18Z_MSC_RDPS_RelativeHumidity_IsbL-0900_RLatLon0.09_PT062H.grib2 2026-05-09 20:58 1.1M
20260509T18Z_MSC_RDPS_RelativeHumidity_IsbL-0925_RLatLon0.09_PT062H.grib2 2026-05-09 20:58 1.1M
20260509T18Z_MSC_RDPS_RelativeHumidity_IsbL-0950_RLatLon0.09_PT062H.grib2 2026-05-09 20:58 1.1M
20260509T18Z_MSC_RDPS_RelativeHumidity_IsbL-0970_RLatLon0.09_PT062H.grib2 2026-05-09 20:58 1.1M
20260509T18Z_MSC_RDPS_RelativeHumidity_IsbL-0985_RLatLon0.09_PT062H.grib2 2026-05-09 20:58 1.0M
20260509T18Z_MSC_RDPS_RelativeHumidity_IsbL-1000_RLatLon0.09_PT062H.grib2 2026-05-09 20:58 1.0M
20260509T18Z_MSC_RDPS_RelativeHumidity_IsbL-1015_RLatLon0.09_PT062H.grib2 2026-05-09 20:58 1.0M
20260509T18Z_MSC_RDPS_Runoff-Accum_Sfc_RLatLon0.09_PT062H.grib2 2026-05-09 20:58 51K
20260509T18Z_MSC_RDPS_SWEATIndex_Sfc_RLatLon0.09_PT062H.grib2 2026-05-09 20:58 2.5M
20260509T18Z_MSC_RDPS_SeeingIndex_EAtm_RLatLon0.09_PT062H.grib2 2026-05-09 20:58 1.1M
20260509T18Z_MSC_RDPS_SensibleHeatNetFlux_Sfc_RLatLon0.09_PT062H.grib2 2026-05-09 20:58 289K
20260509T18Z_MSC_RDPS_ShowalterIndex_IsbL-0500_RLatLon0.09_PT062H.grib2 2026-05-09 20:58 2.6M
20260509T18Z_MSC_RDPS_SkyTransparencyIndex_EAtm_RLatLon0.09_PT062H.grib2 2026-05-09 20:58 703K
20260509T18Z_MSC_RDPS_Snow-Accum1h_Sfc_RLatLon0.09_PT062H.grib2 2026-05-09 20:58 396K
20260509T18Z_MSC_RDPS_Snow-Accum_Sfc_RLatLon0.09_PT062H.grib2 2026-05-09 20:58 703K
20260509T18Z_MSC_RDPS_SnowDensity_Sfc_RLatLon0.09_PT062H.grib2 2026-05-09 20:58 170K
20260509T18Z_MSC_RDPS_SnowDepth_Sfc_RLatLon0.09_PT062H.grib2 2026-05-09 20:58 611K
20260509T18Z_MSC_RDPS_SoilTemp_DBS-0to10cm_RLatLon0.09_PT062H.grib2 2026-05-09 20:58 242K
20260509T18Z_MSC_RDPS_SoilTemp_Sfc_RLatLon0.09_PT062H.grib2 2026-05-09 20:58 283K
20260509T18Z_MSC_RDPS_SoilVolumetricIceContent_Sfc_RLatLon0.09_PT062H.grib2 2026-05-09 20:58 139K
20260509T18Z_MSC_RDPS_SoilVolumetricWaterContent_DBS-0to10cm_RLatLon0.09_PT062H.grib2 2026-05-09 20:58 297K
20260509T18Z_MSC_RDPS_SoilVolumetricWaterContent_DBS-0to1cm_RLatLon0.09_PT062H.grib2 2026-05-09 20:58 351K
20260509T18Z_MSC_RDPS_SpecificHumidity_AGL-120m_RLatLon0.09_PT062H.grib2 2026-05-09 20:58 503K
20260509T18Z_MSC_RDPS_SpecificHumidity_AGL-2m_RLatLon0.09_PT062H.grib2 2026-05-09 20:58 672K
20260509T18Z_MSC_RDPS_SpecificHumidity_AGL-40m_RLatLon0.09_PT062H.grib2 2026-05-09 20:58 508K
20260509T18Z_MSC_RDPS_SpecificHumidity_AGL-80m_RLatLon0.09_PT062H.grib2 2026-05-09 20:58 504K
20260509T18Z_MSC_RDPS_SpecificHumidity_IsbL-0001_RLatLon0.09_PT062H.grib2 2026-05-09 20:58 351K
20260509T18Z_MSC_RDPS_SpecificHumidity_IsbL-0005_RLatLon0.09_PT062H.grib2 2026-05-09 20:58 365K
20260509T18Z_MSC_RDPS_SpecificHumidity_IsbL-0010_RLatLon0.09_PT062H.grib2 2026-05-09 20:58 388K
20260509T18Z_MSC_RDPS_SpecificHumidity_IsbL-0020_RLatLon0.09_PT062H.grib2 2026-05-09 20:58 482K
20260509T18Z_MSC_RDPS_SpecificHumidity_IsbL-0030_RLatLon0.09_PT062H.grib2 2026-05-09 20:58 362K
20260509T18Z_MSC_RDPS_SpecificHumidity_IsbL-0050_RLatLon0.09_PT062H.grib2 2026-05-09 20:58 476K
20260509T18Z_MSC_RDPS_SpecificHumidity_IsbL-0100_RLatLon0.09_PT062H.grib2 2026-05-09 20:58 402K
20260509T18Z_MSC_RDPS_SpecificHumidity_IsbL-0150_RLatLon0.09_PT062H.grib2 2026-05-09 20:58 452K
20260509T18Z_MSC_RDPS_SpecificHumidity_IsbL-0175_RLatLon0.09_PT062H.grib2 2026-05-09 20:58 427K
20260509T18Z_MSC_RDPS_SpecificHumidity_IsbL-0200_RLatLon0.09_PT062H.grib2 2026-05-09 20:58 465K
20260509T18Z_MSC_RDPS_SpecificHumidity_IsbL-0225_RLatLon0.09_PT062H.grib2 2026-05-09 20:58 457K
20260509T18Z_MSC_RDPS_SpecificHumidity_IsbL-0250_RLatLon0.09_PT062H.grib2 2026-05-09 20:58 525K
20260509T18Z_MSC_RDPS_SpecificHumidity_IsbL-0275_RLatLon0.09_PT062H.grib2 2026-05-09 20:58 487K
20260509T18Z_MSC_RDPS_SpecificHumidity_IsbL-0300_RLatLon0.09_PT062H.grib2 2026-05-09 20:58 463K
20260509T18Z_MSC_RDPS_SpecificHumidity_IsbL-0350_RLatLon0.09_PT062H.grib2 2026-05-09 20:58 461K
20260509T18Z_MSC_RDPS_SpecificHumidity_IsbL-0400_RLatLon0.09_PT062H.grib2 2026-05-09 20:58 546K
20260509T18Z_MSC_RDPS_SpecificHumidity_IsbL-0450_RLatLon0.09_PT062H.grib2 2026-05-09 20:58 602K
20260509T18Z_MSC_RDPS_SpecificHumidity_IsbL-0500_RLatLon0.09_PT062H.grib2 2026-05-09 20:58 539K
20260509T18Z_MSC_RDPS_SpecificHumidity_IsbL-0550_RLatLon0.09_PT062H.grib2 2026-05-09 20:58 613K
20260509T18Z_MSC_RDPS_SpecificHumidity_IsbL-0600_RLatLon0.09_PT062H.grib2 2026-05-09 20:58 666K
20260509T18Z_MSC_RDPS_SpecificHumidity_IsbL-0650_RLatLon0.09_PT062H.grib2 2026-05-09 20:58 583K
20260509T18Z_MSC_RDPS_SpecificHumidity_IsbL-0700_RLatLon0.09_PT062H.grib2 2026-05-09 20:58 627K
20260509T18Z_MSC_RDPS_SpecificHumidity_IsbL-0750_RLatLon0.09_PT062H.grib2 2026-05-09 20:58 685K
20260509T18Z_MSC_RDPS_SpecificHumidity_IsbL-0800_RLatLon0.09_PT062H.grib2 2026-05-09 20:58 764K
20260509T18Z_MSC_RDPS_SpecificHumidity_IsbL-0850_RLatLon0.09_PT062H.grib2 2026-05-09 20:58 826K
20260509T18Z_MSC_RDPS_SpecificHumidity_IsbL-0875_RLatLon0.09_PT062H.grib2 2026-05-09 20:58 843K
20260509T18Z_MSC_RDPS_SpecificHumidity_IsbL-0900_RLatLon0.09_PT062H.grib2 2026-05-09 20:58 854K
20260509T18Z_MSC_RDPS_SpecificHumidity_IsbL-0925_RLatLon0.09_PT062H.grib2 2026-05-09 20:58 857K
20260509T18Z_MSC_RDPS_SpecificHumidity_IsbL-0950_RLatLon0.09_PT062H.grib2 2026-05-09 20:58 861K
20260509T18Z_MSC_RDPS_SpecificHumidity_IsbL-0970_RLatLon0.09_PT062H.grib2 2026-05-09 20:58 714K
20260509T18Z_MSC_RDPS_SpecificHumidity_IsbL-0985_RLatLon0.09_PT062H.grib2 2026-05-09 20:58 705K
20260509T18Z_MSC_RDPS_SpecificHumidity_IsbL-1000_RLatLon0.09_PT062H.grib2 2026-05-09 20:58 695K
20260509T18Z_MSC_RDPS_SpecificHumidity_IsbL-1015_RLatLon0.09_PT062H.grib2 2026-05-09 20:58 686K
20260509T18Z_MSC_RDPS_SpecificHumidity_Sfc_RLatLon0.09_PT062H.grib2 2026-05-09 20:58 311K
20260509T18Z_MSC_RDPS_StormRelativeHelicity_EtaL-10000_RLatLon0.09_PT062H.grib2 2026-05-09 20:58 1.1M
20260509T18Z_MSC_RDPS_StormSeverityIndex_EtaL-10000_RLatLon0.09_PT062H.grib2 2026-05-09 20:58 1.2M
20260509T18Z_MSC_RDPS_Thickness_IsbL-0850to0700_RLatLon0.09_PT062H.grib2 2026-05-09 20:58 248K
20260509T18Z_MSC_RDPS_Thickness_IsbL-1000to0500_RLatLon0.09_PT062H.grib2 2026-05-09 20:58 194K
20260509T18Z_MSC_RDPS_Thickness_IsbL-1000to0850_RLatLon0.09_PT062H.grib2 2026-05-09 20:58 260K
20260509T18Z_MSC_RDPS_TotalCloudCover_Sfc_RLatLon0.09_PT062H.grib2 2026-05-09 20:58 672K
20260509T18Z_MSC_RDPS_TotalTotalsIndex_Sfc_RLatLon0.09_PT062H.grib2 2026-05-09 20:58 2.4M
20260509T18Z_MSC_RDPS_UVIndex-ClearSky_Sfc_RLatLon0.09_PT062H.grib2 2026-05-09 20:58 112K
20260509T18Z_MSC_RDPS_UVIndex_Sfc_RLatLon0.09_PT062H.grib2 2026-05-09 20:58 204K
20260509T18Z_MSC_RDPS_UpwardLongwaveRadiationFlux_NTAtm_RLatLon0.09_PT062H.grib2 2026-05-09 20:58 492K
20260509T18Z_MSC_RDPS_UpwardShortwaveRadiationFlux_NTAtm_RLatLon0.09_PT062H.grib2 2026-05-09 20:58 163K
20260509T18Z_MSC_RDPS_VerticalVelocity_IsbL-0250_RLatLon0.09_PT062H.grib2 2026-05-09 20:58 568K
20260509T18Z_MSC_RDPS_VerticalVelocity_IsbL-0500_RLatLon0.09_PT062H.grib2 2026-05-09 20:58 542K
20260509T18Z_MSC_RDPS_VerticalVelocity_IsbL-0700_RLatLon0.09_PT062H.grib2 2026-05-09 20:58 623K
20260509T18Z_MSC_RDPS_VerticalVelocity_IsbL-0850_RLatLon0.09_PT062H.grib2 2026-05-09 20:58 721K
20260509T18Z_MSC_RDPS_VerticalWindShear_EtaL-6500_RLatLon0.09_PT062H.grib2 2026-05-09 20:58 1.2M
20260509T18Z_MSC_RDPS_WindChill_Sfc_RLatLon0.09_PT062H.grib2 2026-05-09 20:58 1.2M
20260509T18Z_MSC_RDPS_WindDir_AGL-10m_RLatLon0.09_PT062H.grib2 2026-05-09 20:58 1.0M
20260509T18Z_MSC_RDPS_WindDir_AGL-120m_RLatLon0.09_PT062H.grib2 2026-05-09 20:58 618K
20260509T18Z_MSC_RDPS_WindDir_AGL-40m_RLatLon0.09_PT062H.grib2 2026-05-09 20:58 653K
20260509T18Z_MSC_RDPS_WindDir_AGL-80m_RLatLon0.09_PT062H.grib2 2026-05-09 20:58 631K
20260509T18Z_MSC_RDPS_WindDir_IsbL-0001_RLatLon0.09_PT062H.grib2 2026-05-09 20:58 279K
20260509T18Z_MSC_RDPS_WindDir_IsbL-0005_RLatLon0.09_PT062H.grib2 2026-05-09 20:58 384K
20260509T18Z_MSC_RDPS_WindDir_IsbL-0010_RLatLon0.09_PT062H.grib2 2026-05-09 20:58 396K
20260509T18Z_MSC_RDPS_WindDir_IsbL-0020_RLatLon0.09_PT062H.grib2 2026-05-09 20:58 443K
20260509T18Z_MSC_RDPS_WindDir_IsbL-0030_RLatLon0.09_PT062H.grib2 2026-05-09 20:58 433K
20260509T18Z_MSC_RDPS_WindDir_IsbL-0050_RLatLon0.09_PT062H.grib2 2026-05-09 20:58 448K
20260509T18Z_MSC_RDPS_WindDir_IsbL-0100_RLatLon0.09_PT062H.grib2 2026-05-09 20:58 429K
20260509T18Z_MSC_RDPS_WindDir_IsbL-0150_RLatLon0.09_PT062H.grib2 2026-05-09 20:58 428K
20260509T18Z_MSC_RDPS_WindDir_IsbL-0175_RLatLon0.09_PT062H.grib2 2026-05-09 20:58 446K
20260509T18Z_MSC_RDPS_WindDir_IsbL-0200_RLatLon0.09_PT062H.grib2 2026-05-09 20:58 457K
20260509T18Z_MSC_RDPS_WindDir_IsbL-0225_RLatLon0.09_PT062H.grib2 2026-05-09 20:58 461K
20260509T18Z_MSC_RDPS_WindDir_IsbL-0250_RLatLon0.09_PT062H.grib2 2026-05-09 20:58 459K
20260509T18Z_MSC_RDPS_WindDir_IsbL-0275_RLatLon0.09_PT062H.grib2 2026-05-09 20:58 480K
20260509T18Z_MSC_RDPS_WindDir_IsbL-0300_RLatLon0.09_PT062H.grib2 2026-05-09 20:58 479K
20260509T18Z_MSC_RDPS_WindDir_IsbL-0350_RLatLon0.09_PT062H.grib2 2026-05-09 20:58 508K
20260509T18Z_MSC_RDPS_WindDir_IsbL-0400_RLatLon0.09_PT062H.grib2 2026-05-09 20:58 540K
20260509T18Z_MSC_RDPS_WindDir_IsbL-0450_RLatLon0.09_PT062H.grib2 2026-05-09 20:58 561K
20260509T18Z_MSC_RDPS_WindDir_IsbL-0500_RLatLon0.09_PT062H.grib2 2026-05-09 20:58 577K
20260509T18Z_MSC_RDPS_WindDir_IsbL-0550_RLatLon0.09_PT062H.grib2 2026-05-09 20:58 582K
20260509T18Z_MSC_RDPS_WindDir_IsbL-0600_RLatLon0.09_PT062H.grib2 2026-05-09 20:58 599K
20260509T18Z_MSC_RDPS_WindDir_IsbL-0650_RLatLon0.09_PT062H.grib2 2026-05-09 20:58 633K
20260509T18Z_MSC_RDPS_WindDir_IsbL-0700_RLatLon0.09_PT062H.grib2 2026-05-09 20:58 672K
20260509T18Z_MSC_RDPS_WindDir_IsbL-0750_RLatLon0.09_PT062H.grib2 2026-05-09 20:58 721K
20260509T18Z_MSC_RDPS_WindDir_IsbL-0800_RLatLon0.09_PT062H.grib2 2026-05-09 20:58 797K
20260509T18Z_MSC_RDPS_WindDir_IsbL-0850_RLatLon0.09_PT062H.grib2 2026-05-09 20:58 866K
20260509T18Z_MSC_RDPS_WindDir_IsbL-0875_RLatLon0.09_PT062H.grib2 2026-05-09 20:58 887K
20260509T18Z_MSC_RDPS_WindDir_IsbL-0900_RLatLon0.09_PT062H.grib2 2026-05-09 20:58 906K
20260509T18Z_MSC_RDPS_WindDir_IsbL-0925_RLatLon0.09_PT062H.grib2 2026-05-09 20:58 925K
20260509T18Z_MSC_RDPS_WindDir_IsbL-0950_RLatLon0.09_PT062H.grib2 2026-05-09 20:58 928K
20260509T18Z_MSC_RDPS_WindDir_IsbL-0970_RLatLon0.09_PT062H.grib2 2026-05-09 20:58 933K
20260509T18Z_MSC_RDPS_WindDir_IsbL-0985_RLatLon0.09_PT062H.grib2 2026-05-09 20:58 945K
20260509T18Z_MSC_RDPS_WindDir_IsbL-1000_RLatLon0.09_PT062H.grib2 2026-05-09 20:58 965K
20260509T18Z_MSC_RDPS_WindDir_IsbL-1015_RLatLon0.09_PT062H.grib2 2026-05-09 20:58 1.0M
20260509T18Z_MSC_RDPS_WindGust-Max_AGL-10m_RLatLon0.09_PT062H.grib2 2026-05-09 20:58 1.0M
20260509T18Z_MSC_RDPS_WindGust-Min_AGL-10m_RLatLon0.09_PT062H.grib2 2026-05-09 20:58 1.0M
20260509T18Z_MSC_RDPS_WindGust_AGL-10m_RLatLon0.09_PT062H.grib2 2026-05-09 20:58 1.0M
20260509T18Z_MSC_RDPS_WindSpeed_AGL-10m_RLatLon0.09_PT062H.grib2 2026-05-09 20:58 854K
20260509T18Z_MSC_RDPS_WindSpeed_AGL-120m_RLatLon0.09_PT062H.grib2 2026-05-09 20:58 549K
20260509T18Z_MSC_RDPS_WindSpeed_AGL-40m_RLatLon0.09_PT062H.grib2 2026-05-09 20:58 683K
20260509T18Z_MSC_RDPS_WindSpeed_AGL-80m_RLatLon0.09_PT062H.grib2 2026-05-09 20:58 550K
20260509T18Z_MSC_RDPS_WindSpeed_IsbL-0001_RLatLon0.09_PT062H.grib2 2026-05-09 20:58 249K
20260509T18Z_MSC_RDPS_WindSpeed_IsbL-0005_RLatLon0.09_PT062H.grib2 2026-05-09 20:58 350K
20260509T18Z_MSC_RDPS_WindSpeed_IsbL-0010_RLatLon0.09_PT062H.grib2 2026-05-09 20:58 363K
20260509T18Z_MSC_RDPS_WindSpeed_IsbL-0020_RLatLon0.09_PT062H.grib2 2026-05-09 20:58 327K
20260509T18Z_MSC_RDPS_WindSpeed_IsbL-0030_RLatLon0.09_PT062H.grib2 2026-05-09 20:58 321K
20260509T18Z_MSC_RDPS_WindSpeed_IsbL-0050_RLatLon0.09_PT062H.grib2 2026-05-09 20:58 447K
20260509T18Z_MSC_RDPS_WindSpeed_IsbL-0100_RLatLon0.09_PT062H.grib2 2026-05-09 20:58 441K
20260509T18Z_MSC_RDPS_WindSpeed_IsbL-0150_RLatLon0.09_PT062H.grib2 2026-05-09 20:58 367K
20260509T18Z_MSC_RDPS_WindSpeed_IsbL-0175_RLatLon0.09_PT062H.grib2 2026-05-09 20:58 392K
20260509T18Z_MSC_RDPS_WindSpeed_IsbL-0200_RLatLon0.09_PT062H.grib2 2026-05-09 20:58 432K
20260509T18Z_MSC_RDPS_WindSpeed_IsbL-0225_RLatLon0.09_PT062H.grib2 2026-05-09 20:58 443K
20260509T18Z_MSC_RDPS_WindSpeed_IsbL-0250_RLatLon0.09_PT062H.grib2 2026-05-09 20:58 448K
20260509T18Z_MSC_RDPS_WindSpeed_IsbL-0275_RLatLon0.09_PT062H.grib2 2026-05-09 20:58 465K
20260509T18Z_MSC_RDPS_WindSpeed_IsbL-0300_RLatLon0.09_PT062H.grib2 2026-05-09 20:58 463K
20260509T18Z_MSC_RDPS_WindSpeed_IsbL-0350_RLatLon0.09_PT062H.grib2 2026-05-09 20:58 474K
20260509T18Z_MSC_RDPS_WindSpeed_IsbL-0400_RLatLon0.09_PT062H.grib2 2026-05-09 20:58 460K
20260509T18Z_MSC_RDPS_WindSpeed_IsbL-0450_RLatLon0.09_PT062H.grib2 2026-05-09 20:58 462K
20260509T18Z_MSC_RDPS_WindSpeed_IsbL-0500_RLatLon0.09_PT062H.grib2 2026-05-09 20:58 584K
20260509T18Z_MSC_RDPS_WindSpeed_IsbL-0550_RLatLon0.09_PT062H.grib2 2026-05-09 20:58 588K
20260509T18Z_MSC_RDPS_WindSpeed_IsbL-0600_RLatLon0.09_PT062H.grib2 2026-05-09 20:58 598K
20260509T18Z_MSC_RDPS_WindSpeed_IsbL-0650_RLatLon0.09_PT062H.grib2 2026-05-09 20:58 663K
20260509T18Z_MSC_RDPS_WindSpeed_IsbL-0700_RLatLon0.09_PT062H.grib2 2026-05-09 20:58 690K
20260509T18Z_MSC_RDPS_WindSpeed_IsbL-0750_RLatLon0.09_PT062H.grib2 2026-05-09 20:58 720K
20260509T18Z_MSC_RDPS_WindSpeed_IsbL-0800_RLatLon0.09_PT062H.grib2 2026-05-09 20:58 774K
20260509T18Z_MSC_RDPS_WindSpeed_IsbL-0850_RLatLon0.09_PT062H.grib2 2026-05-09 20:58 820K
20260509T18Z_MSC_RDPS_WindSpeed_IsbL-0875_RLatLon0.09_PT062H.grib2 2026-05-09 20:58 839K
20260509T18Z_MSC_RDPS_WindSpeed_IsbL-0900_RLatLon0.09_PT062H.grib2 2026-05-09 20:58 857K
20260509T18Z_MSC_RDPS_WindSpeed_IsbL-0925_RLatLon0.09_PT062H.grib2 2026-05-09 20:58 872K
20260509T18Z_MSC_RDPS_WindSpeed_IsbL-0950_RLatLon0.09_PT062H.grib2 2026-05-09 20:58 873K
20260509T18Z_MSC_RDPS_WindSpeed_IsbL-0970_RLatLon0.09_PT062H.grib2 2026-05-09 20:58 872K
20260509T18Z_MSC_RDPS_WindSpeed_IsbL-0985_RLatLon0.09_PT062H.grib2 2026-05-09 20:58 867K
20260509T18Z_MSC_RDPS_WindSpeed_IsbL-1000_RLatLon0.09_PT062H.grib2 2026-05-09 20:58 861K
20260509T18Z_MSC_RDPS_WindSpeed_IsbL-1015_RLatLon0.09_PT062H.grib2 2026-05-09 20:58 854K
20260509T18Z_MSC_RDPS_WindU_AGL-10m_RLatLon0.09_PT062H.grib2 2026-05-09 20:58 436K
20260509T18Z_MSC_RDPS_WindU_AGL-120m_RLatLon0.09_PT062H.grib2 2026-05-09 20:58 543K
20260509T18Z_MSC_RDPS_WindU_AGL-40m_RLatLon0.09_PT062H.grib2 2026-05-09 20:58 546K
20260509T18Z_MSC_RDPS_WindU_AGL-80m_RLatLon0.09_PT062H.grib2 2026-05-09 20:58 545K
20260509T18Z_MSC_RDPS_WindU_IsbL-0001_RLatLon0.09_PT062H.grib2 2026-05-09 20:58 289K
20260509T18Z_MSC_RDPS_WindU_IsbL-0005_RLatLon0.09_PT062H.grib2 2026-05-09 20:58 285K
20260509T18Z_MSC_RDPS_WindU_IsbL-0010_RLatLon0.09_PT062H.grib2 2026-05-09 20:58 296K
20260509T18Z_MSC_RDPS_WindU_IsbL-0020_RLatLon0.09_PT062H.grib2 2026-05-09 20:58 355K
20260509T18Z_MSC_RDPS_WindU_IsbL-0030_RLatLon0.09_PT062H.grib2 2026-05-09 20:58 352K
20260509T18Z_MSC_RDPS_WindU_IsbL-0050_RLatLon0.09_PT062H.grib2 2026-05-09 20:58 340K
20260509T18Z_MSC_RDPS_WindU_IsbL-0100_RLatLon0.09_PT062H.grib2 2026-05-09 20:58 425K
20260509T18Z_MSC_RDPS_WindU_IsbL-0150_RLatLon0.09_PT062H.grib2 2026-05-09 20:58 385K
20260509T18Z_MSC_RDPS_WindU_IsbL-0175_RLatLon0.09_PT062H.grib2 2026-05-09 20:58 409K
20260509T18Z_MSC_RDPS_WindU_IsbL-0200_RLatLon0.09_PT062H.grib2 2026-05-09 20:58 426K
20260509T18Z_MSC_RDPS_WindU_IsbL-0225_RLatLon0.09_PT062H.grib2 2026-05-09 20:58 435K
20260509T18Z_MSC_RDPS_WindU_IsbL-0250_RLatLon0.09_PT062H.grib2 2026-05-09 20:58 338K
20260509T18Z_MSC_RDPS_WindU_IsbL-0275_RLatLon0.09_PT062H.grib2 2026-05-09 20:58 354K
20260509T18Z_MSC_RDPS_WindU_IsbL-0300_RLatLon0.09_PT062H.grib2 2026-05-09 20:58 351K
20260509T18Z_MSC_RDPS_WindU_IsbL-0350_RLatLon0.09_PT062H.grib2 2026-05-09 20:58 359K
20260509T18Z_MSC_RDPS_WindU_IsbL-0400_RLatLon0.09_PT062H.grib2 2026-05-09 20:58 465K
20260509T18Z_MSC_RDPS_WindU_IsbL-0450_RLatLon0.09_PT062H.grib2 2026-05-09 20:58 467K
20260509T18Z_MSC_RDPS_WindU_IsbL-0500_RLatLon0.09_PT062H.grib2 2026-05-09 20:58 471K
20260509T18Z_MSC_RDPS_WindU_IsbL-0550_RLatLon0.09_PT062H.grib2 2026-05-09 20:58 474K
20260509T18Z_MSC_RDPS_WindU_IsbL-0600_RLatLon0.09_PT062H.grib2 2026-05-09 20:58 484K
20260509T18Z_MSC_RDPS_WindU_IsbL-0650_RLatLon0.09_PT062H.grib2 2026-05-09 20:58 488K
20260509T18Z_MSC_RDPS_WindU_IsbL-0700_RLatLon0.09_PT062H.grib2 2026-05-09 20:58 511K
20260509T18Z_MSC_RDPS_WindU_IsbL-0750_RLatLon0.09_PT062H.grib2 2026-05-09 20:58 539K
20260509T18Z_MSC_RDPS_WindU_IsbL-0800_RLatLon0.09_PT062H.grib2 2026-05-09 20:58 585K
20260509T18Z_MSC_RDPS_WindU_IsbL-0850_RLatLon0.09_PT062H.grib2 2026-05-09 20:58 632K
20260509T18Z_MSC_RDPS_WindU_IsbL-0875_RLatLon0.09_PT062H.grib2 2026-05-09 20:58 648K
20260509T18Z_MSC_RDPS_WindU_IsbL-0900_RLatLon0.09_PT062H.grib2 2026-05-09 20:58 800K
20260509T18Z_MSC_RDPS_WindU_IsbL-0925_RLatLon0.09_PT062H.grib2 2026-05-09 20:58 812K
20260509T18Z_MSC_RDPS_WindU_IsbL-0950_RLatLon0.09_PT062H.grib2 2026-05-09 20:58 810K
20260509T18Z_MSC_RDPS_WindU_IsbL-0970_RLatLon0.09_PT062H.grib2 2026-05-09 20:58 806K
20260509T18Z_MSC_RDPS_WindU_IsbL-0985_RLatLon0.09_PT062H.grib2 2026-05-09 20:58 801K
20260509T18Z_MSC_RDPS_WindU_IsbL-1000_RLatLon0.09_PT062H.grib2 2026-05-09 20:58 795K
20260509T18Z_MSC_RDPS_WindU_IsbL-1015_RLatLon0.09_PT062H.grib2 2026-05-09 20:58 836K
20260509T18Z_MSC_RDPS_WindV_AGL-10m_RLatLon0.09_PT062H.grib2 2026-05-09 20:58 437K
20260509T18Z_MSC_RDPS_WindV_AGL-120m_RLatLon0.09_PT062H.grib2 2026-05-09 20:58 543K
20260509T18Z_MSC_RDPS_WindV_AGL-40m_RLatLon0.09_PT062H.grib2 2026-05-09 20:58 546K
20260509T18Z_MSC_RDPS_WindV_AGL-80m_RLatLon0.09_PT062H.grib2 2026-05-09 20:58 544K
20260509T18Z_MSC_RDPS_WindV_IsbL-0001_RLatLon0.09_PT062H.grib2 2026-05-09 20:58 244K
20260509T18Z_MSC_RDPS_WindV_IsbL-0005_RLatLon0.09_PT062H.grib2 2026-05-09 20:58 375K
20260509T18Z_MSC_RDPS_WindV_IsbL-0010_RLatLon0.09_PT062H.grib2 2026-05-09 20:58 390K
20260509T18Z_MSC_RDPS_WindV_IsbL-0020_RLatLon0.09_PT062H.grib2 2026-05-09 20:58 358K
20260509T18Z_MSC_RDPS_WindV_IsbL-0030_RLatLon0.09_PT062H.grib2 2026-05-09 20:58 355K
20260509T18Z_MSC_RDPS_WindV_IsbL-0050_RLatLon0.09_PT062H.grib2 2026-05-09 20:58 339K
20260509T18Z_MSC_RDPS_WindV_IsbL-0100_RLatLon0.09_PT062H.grib2 2026-05-09 20:58 417K
20260509T18Z_MSC_RDPS_WindV_IsbL-0150_RLatLon0.09_PT062H.grib2 2026-05-09 20:58 384K
20260509T18Z_MSC_RDPS_WindV_IsbL-0175_RLatLon0.09_PT062H.grib2 2026-05-09 20:58 406K
20260509T18Z_MSC_RDPS_WindV_IsbL-0200_RLatLon0.09_PT062H.grib2 2026-05-09 20:58 423K
20260509T18Z_MSC_RDPS_WindV_IsbL-0225_RLatLon0.09_PT062H.grib2 2026-05-09 20:58 335K
20260509T18Z_MSC_RDPS_WindV_IsbL-0250_RLatLon0.09_PT062H.grib2 2026-05-09 20:58 338K
20260509T18Z_MSC_RDPS_WindV_IsbL-0275_RLatLon0.09_PT062H.grib2 2026-05-09 20:58 352K
20260509T18Z_MSC_RDPS_WindV_IsbL-0300_RLatLon0.09_PT062H.grib2 2026-05-09 20:58 348K
20260509T18Z_MSC_RDPS_WindV_IsbL-0350_RLatLon0.09_PT062H.grib2 2026-05-09 20:58 357K
20260509T18Z_MSC_RDPS_WindV_IsbL-0400_RLatLon0.09_PT062H.grib2 2026-05-09 20:58 463K
20260509T18Z_MSC_RDPS_WindV_IsbL-0450_RLatLon0.09_PT062H.grib2 2026-05-09 20:58 466K
20260509T18Z_MSC_RDPS_WindV_IsbL-0500_RLatLon0.09_PT062H.grib2 2026-05-09 20:58 470K
20260509T18Z_MSC_RDPS_WindV_IsbL-0550_RLatLon0.09_PT062H.grib2 2026-05-09 20:58 473K
20260509T18Z_MSC_RDPS_WindV_IsbL-0600_RLatLon0.09_PT062H.grib2 2026-05-09 20:58 482K
20260509T18Z_MSC_RDPS_WindV_IsbL-0650_RLatLon0.09_PT062H.grib2 2026-05-09 20:58 484K
20260509T18Z_MSC_RDPS_WindV_IsbL-0700_RLatLon0.09_PT062H.grib2 2026-05-09 20:58 508K
20260509T18Z_MSC_RDPS_WindV_IsbL-0750_RLatLon0.09_PT062H.grib2 2026-05-09 20:58 535K
20260509T18Z_MSC_RDPS_WindV_IsbL-0800_RLatLon0.09_PT062H.grib2 2026-05-09 20:58 582K
20260509T18Z_MSC_RDPS_WindV_IsbL-0850_RLatLon0.09_PT062H.grib2 2026-05-09 20:58 628K
20260509T18Z_MSC_RDPS_WindV_IsbL-0875_RLatLon0.09_PT062H.grib2 2026-05-09 20:58 645K
20260509T18Z_MSC_RDPS_WindV_IsbL-0900_RLatLon0.09_PT062H.grib2 2026-05-09 20:58 657K
20260509T18Z_MSC_RDPS_WindV_IsbL-0925_RLatLon0.09_PT062H.grib2 2026-05-09 20:58 667K
20260509T18Z_MSC_RDPS_WindV_IsbL-0950_RLatLon0.09_PT062H.grib2 2026-05-09 20:58 807K
20260509T18Z_MSC_RDPS_WindV_IsbL-0970_RLatLon0.09_PT062H.grib2 2026-05-09 20:58 804K
20260509T18Z_MSC_RDPS_WindV_IsbL-0985_RLatLon0.09_PT062H.grib2 2026-05-09 20:58 802K
20260509T18Z_MSC_RDPS_WindV_IsbL-1000_RLatLon0.09_PT062H.grib2 2026-05-09 20:58 843K
20260509T18Z_MSC_RDPS_WindV_IsbL-1015_RLatLon0.09_PT062H.grib2 2026-05-09 20:58 836K